Location: Newark
(7.0858°N, 171.3717°E)
Time: 06:44:32
(UTC+00:00)

Courier 1B - Pass Details

Date: 27 November 2020
Orbit: 962 x 1209 km, 28.3° (Epoch: 19 January)

Event Time Altitude Azimuth Distance (km) Brightness Sun altitude
Rises 11:43:40 0° 294° (WNW) 3,756 - -73.0°
Reaches altitude 10° 11:47:43 10° 317° (NW) 2,855 - -73.5°
Maximum altitude 11:51:30 15° 350° (N) 2,551 - -74.0°
Drops below altitude 10° 11:55:22 10° 23° (NNE) 2,956 - -74.4°
Sets 11:59:43 0° 45° (NE) 3,971 - -74.8°
